DELTA 1 DEB, 7890

Orbit data source: Space-Track

DELTA 1 DEB, 7890 is space debris in SSO originally from a launch on Sun, 23 Jul 1972 UTC launched from the Air Force Western Test Range (AFWTR). Debris objects in space refer to the collection of defunct objects orbiting the Earth. Examples of debris include non-operational satellites, rocket bodies, and fragments generated from explosions, collisions, or faulty payload assembly.

Loading next visibility...
Identifier
7890, 1972-058BG
Orbit
SSO
Country
Flag of USUS
Related business
Manufacturer
Unknown
Mission
Spacecraft
Bus & Motor
Unknown
Mass
Unknown
Launch date (UTC)
1972-07-23 (54 years ago)
Launch vehicle
Unknown
Launch site
Air Force Western Test Range (AFWTR)
Object type
Payload
Rocket body
Debris
Shape & HBR
Unknown shape, 0.2 m
Radar Cross Section
Small (<0.1 m²)

Expand to show TLE details & history
Last TLE update: 7 hours ago

TLE from 7 hours ago
0 DELTA 1 DEB
1 07890U 72058BG  26107.27379550  .00005843  00000-0  57199-3 0  9994
2 07890  98.8251 210.7763 0095871 222.1533 137.2281 14.89350324631387
Epoch: 2026-04-17T06:34Z
TLE epoch observation values (Epoch: 2026-04-17T06:34:15.931Z)
Latitude
-0.00002°
Longitude
-93.19942°
Altitude
652.381 km
Speed
7.505 km/s
True Right ascension
14h 03m 06s
True Declination
0° 00' 00"
Sunlit
Object was in full shadow at epoch
Visualization orbit readout
Latitude
Unknown
Longitude
Unknown
Altitude
Unknown
Speed
Unknown
Apparent Right ascension
Unknown
Apparent Declination
Unknown
Sunlit
N/A
Visualization observer readout
Local Sidereal Time
20:10:02
Azimuth
Unknown
Elevation
Unknown
Doppler factor
Unknown
Orbital elements
Apogee altitude
663.908 km
Perigee altitude
530.164 km
Semi-major axis
6,975.173 km
Eccentricity
0.00959
Inclination
98.8251°
RAAN
210.7763°
Arg. of periapsis
222.1533°
True anomaly
137.96761°
Mean anomaly
137.2281°
Eccentric anomaly
137.59851°
Mean motion
3.72572 °/min
Orbital period
96.63 mins
BSTAR
0.00057199
Loading maneuver chart data...
Computing Atmospheric mass density...
Loading historical data...
Loading historical data...
Loading historical data...
Loading historical data...
Loading historical data...
Loading historical data...
Loading historical data...

Documentation

Showing up to 5 results
|